Zurück zum Katalog

STARLINK-31732

AktivKommunikationVLEO
NORAD 60099·PAYLOAD·🇺🇸 United States

Gestartet Jun 23, 2024 von Cape Canaveral Space Force Station

Loading…

Nächste Überflüge (nächste 24 Stunden)

TLE

AktuellSource: CelesTrak SupGP

Epoche: Sep 14, 2026, 14:20 UTC

1 60099C 24117J   26257.59770833 -.00030674  00000+0 -90656-3 0  2570
2 60099  53.1573 237.2450 0001375  85.0682 261.0409 15.34395748    10

Verfolge STARLINK-31732 in Echtzeit mit AllMySat

Download on the App Store